| time (UTC) | temp F | wind direction | speed MPH | gust MPH | rain 1hr in | rain 24hr in | rain mn in | humidity % | barometer mb |
| 20260902121909 | 56 | 112 | 0.0 | 0.0 | 0.00 | 0.00 | 0.00 | 69 | 1011.7 |
| 20260902120405 | 56 | 112 | 0.0 | 0.0 | 0.00 | 0.00 | 0.00 | 68 | 1011.8 |
| 20260902114907 | 56 | 112 | 0.0 | 0.0 | 0.00 | 0.00 | 0.00 | 68 | 1011.8 |
| 20260902113406 | 56 | 112 | 0.0 | 0.0 | 0.00 | 0.00 | 0.00 | 68 | 1011.9 |
| 20260902111906 | 56 | 112 | 0.0 | 0.0 | 0.00 | 0.00 | 0.00 | 68 | 1012.1 |
| 20260902110404 | 56 | 129 | 0.0 | 2.0 | 0.00 | 0.00 | 0.00 | 67 | 1012.4 |
| 20260902105606 | 56 | 120 | 0.0 | 0.0 | 0.00 | 0.00 | 0.00 | 68 | 1012.6 |
| 20260902104055 | 56 | 120 | 0.0 | 0.0 | 0.00 | 0.00 | 0.00 | 69 | 1012.7 |
| 20260902102555 | 56 | 120 | 0.0 | 0.0 | 0.00 | 0.00 | 0.00 | 69 | 1012.7 |
| 20260902100356 | 56 | 120 | 0.0 | 0.0 | 0.00 | 0.00 | 0.00 | 68 | 1012.8 |
| 20260902095543 | 56 | 120 | 0.0 | 0.0 | 0.00 | 0.00 | 0.00 | 67 | 1013.0 |
| 20260902093353 | 57 | 118 | 0.0 | 0.0 | 0.00 | 0.00 | 0.00 | 66 | 1013.1 |
| 20260902091854 | 58 | 118 | 0.0 | 0.0 | 0.00 | 0.00 | 0.00 | 65 | 1013.2 |
| 20260902090353 | 58 | 118 | 0.0 | 0.0 | 0.00 | 0.00 | 0.00 | 64 | 1013.2 |
| 20260902084851 | 58 | 118 | 0.0 | 0.0 | 0.00 | 0.00 | 0.00 | 64 | 1013.4 |
| 20260902083350 | 58 | 118 | 0.0 | 1.0 | 0.00 | 0.00 | 0.00 | 64 | 1013.5 |
| 20260902081851 | 58 | 140 | 0.0 | 1.0 | 0.00 | 0.00 | 0.00 | 65 | 1013.6 |
| 20260902080347 | 57 | 141 | 0.0 | 0.0 | 0.00 | 0.00 | 0.00 | 66 | 1013.5 |
| 20260902074846 | 57 | 141 | 0.0 | 0.0 | 0.00 | 0.00 | 0.00 | 66 | 1013.3 |
| 20260902073344 | 56 | 140 | 0.0 | 0.0 | 0.00 | 0.00 | 0.00 | 66 | 1013.4 |
| 20260902071843 | 57 | 141 | 0.0 | 1.0 | 0.00 | 0.00 | 0.00 | 65 | 1013.4 |
| 20260902070344 | 57 | 205 | 0.0 | 0.0 | 0.00 | 0.00 | 0.00 | 64 | 1013.3 |
| 20260902064840 | 58 | 205 | 0.0 | 0.0 | 0.00 | 0.00 | 0.00 | 62 | 1013.3 |
| 20260902063340 | 60 | 270 | 0.0 | 0.0 | 0.00 | 0.00 | 0.00 | 59 | 1013.3 |
| 20260902061840 | 61 | 266 | 0.0 | 0.0 | 0.00 | 0.00 | 0.00 | 58 | 1013.4 |
| 20260902061728 | 61 | 269 | 0.0 | 1.0 | 0.00 | 0.00 | 0.00 | 57 | 1013.5 |
| 20260902054840 | 62 | 266 | 0.0 | 0.0 | 0.00 | 0.00 | 0.00 | 56 | 1013.6 |
| 20260902054041 | 62 | 249 | 0.0 | 1.0 | 0.00 | 0.00 | 0.00 | 54 | 1013.8 |
| 20260902051841 | 62 | 247 | 0.0 | 0.0 | 0.00 | 0.00 | 0.00 | 54 | 1013.8 |
| 20260902050340 | 63 | 247 | 0.0 | 0.0 | 0.00 | 0.00 | 0.00 | 53 | 1013.9 |
| 20260902045539 | 63 | 262 | 1.0 | 4.0 | 0.00 | 0.00 | 0.00 | 52 | 1014.0 |
| 20260902043338 | 63 | 318 | 1.0 | 4.0 | 0.00 | 0.00 | 0.00 | 51 | 1014.1 |
| 20260902041836 | 63 | 251 | 0.0 | 0.0 | 0.00 | 0.00 | 0.00 | 50 | 1014.0 |
| 20260902040334 | 64 | 276 | 0.0 | 5.0 | 0.00 | 0.00 | 0.00 | 50 | 1013.9 |
| 20260902034835 | 64 | 271 | 0.0 | 5.0 | 0.00 | 0.00 | 0.00 | 49 | 1013.6 |
| 20260902033334 | 64 | 259 | 1.0 | 8.0 | 0.00 | 0.00 | 0.00 | 49 | 1013.4 |
| 20260902031835 | 64 | 278 | 2.0 | 9.0 | 0.00 | 0.00 | 0.00 | 48 | 1013.3 |
| 20260902030334 | 65 | 276 | 2.0 | 10.0 | 0.00 | 0.00 | 0.00 | 48 | 1013.1 |
| 20260902024834 | 66 | 289 | 1.0 | 6.0 | 0.00 | 0.00 | 0.00 | 48 | 1012.9 |
| 20260902023332 | 66 | 288 | 1.0 | 8.0 | 0.00 | 0.00 | 0.00 | 47 | 1012.6 |
| 20260902023216 | 66 | 243 | 1.0 | 10.0 | 0.00 | 0.00 | 0.00 | 47 | 1012.5 |
| 20260902020328 | 66 | 244 | 1.0 | 5.0 | 0.00 | 0.00 | 0.00 | 48 | 1012.4 |
| 20260902014827 | 67 | 153 | 1.0 | 13.0 | 0.00 | 0.00 | 0.00 | 48 | 1012.5 |
| 20260902013327 | 67 | 243 | 2.0 | 8.0 | 0.00 | 0.00 | 0.00 | 46 | 1012.5 |
| 20260902011827 | 68 | 227 | 0.0 | 2.0 | 0.00 | 0.00 | 0.00 | 46 | 1012.5 |
| 20260902011040 | 68 | 218 | 0.0 | 3.0 | 0.00 | 0.00 | 0.00 | 47 | 1012.5 |
| 20260902004823 | 67 | 241 | 0.0 | 5.0 | 0.00 | 0.00 | 0.00 | 46 | 1012.4 |
| 20260902003322 | 68 | 243 | 1.0 | 8.0 | 0.00 | 0.00 | 0.00 | 46 | 1012.4 |
| 20260902002514 | 68 | 280 | 1.0 | 13.0 | 0.00 | 0.00 | 0.00 | 44 | 1012.1 |
| 20260902000322 | 69 | 262 | 1.0 | 11.0 | 0.00 | 0.00 | 0.00 | 43 | 1012.1 |
| 20260901234817 | 69 | 251 | 2.0 | 8.0 | 0.00 | 0.00 | 0.00 | 42 | 1012.0 |
| 20260901233317 | 69 | 354 | 2.0 | 12.0 | 0.00 | 0.00 | 0.00 | 42 | 1011.9 |
| 20260901232525 | 70 | 293 | 2.0 | 13.0 | 0.00 | 0.00 | 0.00 | 42 | 1011.8 |
| 20260901230317 | 70 | 285 | 2.0 | 11.0 | 0.00 | 0.00 | 0.00 | 41 | 1011.7 |
| 20260901224817 | 71 | 268 | 2.0 | 12.0 | 0.00 | 0.00 | 0.00 | 41 | 1011.6 |
| 20260901223316 | 70 | 277 | 2.0 | 12.0 | 0.00 | 0.00 | 0.00 | 41 | 1011.6 |
| 20260901221813 | 71 | 288 | 2.0 | 9.0 | 0.00 | 0.00 | 0.00 | 40 | 1011.8 |
| 20260901220313 | 71 | 277 | 2.0 | 14.0 | 0.00 | 0.00 | 0.00 | 40 | 1011.8 |
| 20260901214813 | 71 | 279 | 2.0 | 11.0 | 0.00 | 0.00 | 0.00 | 40 | 1011.8 |
| 20260901213314 | 71 | 285 | 2.0 | 15.0 | 0.00 | 0.00 | 0.00 | 41 | 1011.7 |
| 20260901211813 | 72 | 222 | 3.0 | 18.0 | 0.00 | 0.00 | 0.00 | 39 | 1011.7 |
| 20260901210311 | 72 | 278 | 3.0 | 18.0 | 0.00 | 0.00 | 0.00 | 39 | 1011.6 |
| 20260901204812 | 73 | 241 | 3.0 | 15.0 | 0.00 | 0.00 | 0.00 | 38 | 1011.5 |
| 20260901203312 | 73 | 218 | 1.0 | 9.0 | 0.00 | 0.00 | 0.00 | 38 | 1011.4 |
| 20260901201811 | 72 | 264 | 1.0 | 9.0 | 0.00 | 0.00 | 0.00 | 40 | 1011.5 |
| 20260901200313 | 72 | 300 | 0.0 | 2.0 | 0.00 | 0.00 | 0.00 | 41 | 1011.6 |
| 20260901194811 | 71 | 66 | 0.0 | 2.0 | 0.00 | 0.00 | 0.00 | 40 | 1011.8 |
| 20260901194002 | 71 | 114 | 0.0 | 2.0 | 0.00 | 0.00 | 0.00 | 41 | 1012.0 |
| 20260901191811 | 70 | 279 | 0.0 | 1.0 | 0.00 | 0.00 | 0.00 | 43 | 1012.2 |
| 20260901190308 | 69 | 141 | 0.0 | 0.0 | 0.00 | 0.00 | 0.00 | 45 | 1012.4 |
| 20260901184806 | 67 | 29 | 0.0 | 0.0 | 0.00 | 0.00 | 0.00 | 47 | 1012.6 |
| 20260901183307 | 67 | 68 | 0.0 | 2.0 | 0.00 | 0.00 | 0.00 | 46 | 1012.9 |
| 20260901182508 | 68 | 266 | 0.0 | 3.0 | 0.00 | 0.00 | 0.00 | 46 | 1012.9 |
| 20260901181712 | 66 | 183 | 0.0 | 2.0 | 0.00 | 0.00 | 0.00 | 48 | 1013.0 |
| 20260901174807 | 65 | 249 | 0.0 | 3.0 | 0.00 | 0.00 | 0.00 | 50 | 1013.0 |
| 20260901173307 | 65 | 329 | 0.0 | 3.0 | 0.00 | 0.00 | 0.00 | 51 | 1013.1 |
| 20260901171807 | 64 | 274 | 0.0 | 1.0 | 0.00 | 0.00 | 0.00 | 53 | 1013.2 |
| 20260901170304 | 63 | 216 | 0.0 | 2.0 | 0.00 | 0.00 | 0.00 | 54 | 1013.3 |
| 20260901164803 | 63 | 263 | 0.0 | 2.0 | 0.00 | 0.00 | 0.00 | 54 | 1013.3 |
| 20260901163300 | 62 | 314 | 0.0 | 3.0 | 0.00 | 0.00 | 0.00 | 59 | 1013.4 |
| 20260901161759 | 61 | 284 | 0.0 | 0.0 | 0.00 | 0.00 | 0.00 | 61 | 1013.5 |
| 20260901160943 | 60 | 272 | 0.0 | 1.0 | 0.00 | 0.00 | 0.00 | 62 | 1013.6 |
| 20260901154752 | 60 | 322 | 0.0 | 1.0 | 0.00 | 0.00 | 0.00 | 65 | 1013.5 |
| 20260901153251 | 59 | 272 | 0.0 | 0.0 | 0.00 | 0.00 | 0.00 | 66 | 1013.5 |
| 20260901151749 | 58 | 272 | 0.0 | 0.0 | 0.00 | 0.00 | 0.00 | 67 | 1013.5 |
| 20260901150246 | 57 | 180 | 0.0 | 0.0 | 0.00 | 0.00 | 0.00 | 70 | 1013.6 |
| 20260901144745 | 56 | 179 | 0.0 | 0.0 | 0.00 | 0.00 | 0.00 | 72 | 1013.4 |
| 20260901143246 | 56 | 180 | 0.0 | 1.0 | 0.00 | 0.00 | 0.00 | 74 | 1013.2 |
| 20260901141744 | 55 | 180 | 0.0 | 0.0 | 0.00 | 0.00 | 0.00 | 76 | 1013.0 |
| 20260901140244 | 54 | 180 | 0.0 | 0.0 | 0.00 | 0.00 | 0.00 | 76 | 1013.0 |
| 20260901134744 | 53 | 198 | 0.0 | 0.0 | 0.00 | 0.00 | 0.00 | 76 | 1012.8 |
| 20260901133937 | 54 | 198 | 0.0 | 0.0 | 0.00 | 0.00 | 0.00 | 76 | 1012.7 |
| 20260901131741 | 53 | 198 | 0.0 | 0.0 | 0.00 | 0.00 | 0.00 | 75 | 1012.7 |
| 20260901130237 | 54 | 198 | 0.0 | 0.0 | 0.00 | 0.00 | 0.00 | 74 | 1012.7 |
| 20260901125424 | 54 | 198 | 0.0 | 0.0 | 0.00 | 0.00 | 0.00 | 74 | 1012.5 |
| 20260901123234 | 54 | 198 | 0.0 | 0.0 | 0.00 | 0.00 | 0.00 | 73 | 1012.5 |